Regional Weather Roundup
Issued by NWS Midland/Odessa, TX

Home | Current Version | Previous Version | Text Only | Print | Product List | Glossary On
Versions: 1 2 3 4 5 6 7 8 9 10 11 12 13 14 15 16 17 18 19 20 21 22 23 24 25 26 27 28 29 30 31 32 33 34 35 36 37 38 39 40 41 42 43 44 45 46 47 48 49 50
000
ASUS44 KMAF 301610
RWRMAF
MIDLAND AREA WEATHER ROUNDUP
NATIONAL WEATHER SERVICE MIDLAND TX
1100 AM CDT SUN AUG 30 2015

...IN SOUTHWEST TEXAS AND SOUTHEAST NEW MEXICO...

CITY           SKY/WX    TMP DP  RH WIND       PRES   REMARKS
ALPINE         SUNNY     78  53  41 E3        30.25R
ANDREWS        FAIR      78  56  47 S3        30.17R
ARTESIA        SUNNY     75  59  57 S6        30.18S
BIG SPRING     MOSUNNY   75  56  51 CALM      30.16S
CARLSBAD       SUNNY     79  55  43 SE5       30.15S
DRYDEN           N/A     79  59  50 VRB5      30.08S
FORT STOCKTON  SUNNY     80  53  39 VRB5      30.13R
GUAD PASS      SUNNY     74  51  44 E17       30.28R
HOBBS          SUNNY     75  55  50 CALM      30.20R
MARFA          SUNNY     75  52  43 S7        30.24R
MIDLAND AIRPK  SUNNY     81  56  42 S3        30.14S
MIDLAND INTL   SUNNY     80  55  42 S7        30.14R
ODESSA         SUNNY     79  54  41 S7        30.15R
PECOS          SUNNY     77  55  46 CALM      30.12S
PRESIDIO       NOT AVBL
SEMINOLE       SUNNY     79  56  43 SW6       30.18S
SNYDER         PTSUNNY   74  58  58 SW5       30.14R
WINK           SUNNY     80  56  43 CALM      30.12R
$$
...OTHER STATIONS IN TEXAS...

CITY           SKY/WX    TMP DP  RH WIND       PRES   REMARKS
ABILENE        PTSUNNY   82  60  47 SW7       30.10R
AMARILLO       SUNNY     78  59  51 VRB3      30.16R
AUSTIN         MOSUNNY   84  64  50 VRB3      30.05R
BROWNSVILLE    MOSUNNY   86  73  65 S9        30.00R
CORPUS CHRISTI MOSUNNY   88  70  55 E3        30.01R
DALLAS FTW     PTSUNNY   87  64  46 SW12      30.02R
DEL RIO        PTSUNNY   83  68  60 SE9       30.04R
EL PASO        SUNNY     79  53  40 E7        30.17R
HOUSTON INT    PTSUNNY   83  68  60 CALM      30.04R
LUBBOCK        SUNNY     79  55  43 W12       30.16R
SAN ANGELO     CLOUDY    79  60  52 CALM      30.11R
SAN ANTONIO    CLOUDY    80  66  62 W6        30.07R
WACO           LGT RAIN  74  70  87 E7        30.04R
WICHITA FALLS  NOT AVBL
$$
...OTHER LOCATIONS IN NEW MEXICO...

CITY           SKY/WX    TMP DP  RH WIND       PRES   REMARKS
ALAMAGORDO     SUNNY     75  55  50 W3        30.20R
ALBUQUERQUE    MOSUNNY   75  50  41 S3        30.26S
CANNON AFB     NOT AVBL
CLOVIS         SUNNY     73  59  60 SW9       30.22R
HOLLOMAN AFB   NOT AVBL
ROSWELL        SUNNY     77  55  46 S9        30.18R
RUIDOSO        SUNNY     70  50  49 MISG      30.37S
SANTA FE       SUNNY     73  50  44 N8        30.31S
TRUTH OR CONSE SUNNY     80  52  37 VRB5      30.21R
TUCUMCARI      SUNNY     80  57  45 SW7       30.16S
$$




USA.gov is the U.S. government's official web portal to all federal, state and local government web resources and services.